Location: Bukovany
(49.8234°N, 14.6297°E)
Time: 17:50:10
(UTC+00:00)

Cosmos 2344 - Pass Details

Date: 17 November 2025
Orbit: 1197 x 3045 km, 63.3° (Epoch: 09 December)

Event Time Altitude Azimuth Distance (km) Brightness Sun altitude
Rises 16:19:08 0° 309° (NW) 4,122 6.8 -10.3°
Reaches altitude 10° 16:21:52 10° 317° (NW) 3,205 6.1 -10.7°
Maximum altitude 16:29:03 45° 30° (NNE) 1,831 4.1 -11.8°
Enters shadow 16:37:28 12° 100° (E) 3,824 5.5 -13.1°
